Showing default

PRAETORIAN SDA_607, 65570

Orbit data source: Space-Track

PRAETORIAN SDA_607, 65570 is a payload satellite owned by SDA (US) in LEO that was launched on Wed, 10 Sep 2025 UTC via an FALCON 9 launch vehicle from the Air Force Western Test Range (AFWTR). Payload-class satellites include a variety of spacecraft equipped with specific instruments for various scientific and technological missions. These include communications satellites like Starlink; space stations such as the ISS; scientific satellites like the Hubble; Earth observation satellites from companies like Planet Labs, Umbra, and HawkEye 360; GPS; miniature CubeSats for education and research; and military/defense satellites.

Loading next visibility...
Identifier
65570, 2025-203F
Orbit
LEO
Country
Flag of USUS
Related business
Manufacturer
York Space Sys
Mission
Operational Defense Communications
Bus & Motor
S-CLASS, Unknown motor
Mass
~300 kg wet, ~300 kg dry
Launch date (UTC)
2025-09-10 (9 months ago)
Launch vehicle
FALCON 9
Launch site
Air Force Western Test Range (AFWTR)
Object type
Payload
Rocket body
Debris
Shape & HBR
Box + 4 Pan, 14.5 m
Radar Cross Section
1.244 m², Large (>1 m²)

Expand to show TLE details & history
Last TLE update: 14 hours ago

TLE from 14 hours ago
0 PRAETORIAN SDA_607
1 65570U 25203F   26171.27890219  .00000120  00000-0  97190-4 0  9993
2 65570  81.3036   7.7808 0008896 178.9840 181.1336 13.84284906 39138
Epoch: 2026-06-20T06:41Z
TLE epoch observation values (Epoch: 2026-06-20T06:41:37.149Z)
Latitude
-0.00005°
Longitude
-1.11981°
Altitude
958.112 km
Speed
7.369 km/s
True Right ascension
00h 31m 07s
True Declination
0° 00' 00"
Sunlit
Object was in daylight at epoch
Visualization orbit readout
Latitude
Unknown
Longitude
Unknown
Altitude
Unknown
Speed
Unknown
Apparent Right ascension
Unknown
Apparent Declination
Unknown
Sunlit
N/A
Visualization observer readout
Local Sidereal Time
07:14:18
Azimuth
Unknown
Elevation
Unknown
Doppler factor
Unknown
Orbital elements
Apogee altitude
952.449 km
Perigee altitude
939.418 km
Semi-major axis
7,324.071 km
Eccentricity
0.00089
Inclination
81.3036°
RAAN
7.7808°
Arg. of periapsis
178.984°
True anomaly
181.13159°
Mean anomaly
181.1336°
Eccentric anomaly
181.13259°
Mean motion
3.4627 °/min
Orbital period
103.97 mins
BSTAR
0.00009719
Loading maneuver chart data...
Computing Atmospheric mass density...
Loading historical data...
Loading historical data...
Loading historical data...
Loading historical data...
Loading historical data...
Loading historical data...
Loading historical data...

Documentation

Showing up to 5 results
|